Probability
0 0 0 0 0 0 0 0 0 0 0 0 0 0 0 0 0 0 0 0 0 0 0 0 0 0 0 0 0 0 0 1 3 3 1 0 0 0 0 0 0 0 0 0
0 0 0 0 0 0 0 0 0 0 0 0 0 0 0 0 0 0 0 0 0 0 0 0 0 0 0 0 0 0 1 2 3 3 2 1 0 0 0 0 0 0 0 0
0 0 0 0 0 0 0 0 0 0 0 0 0 0 0 0 0 0 0 0 0 0 0 0 0 0 0 0 0 0 1 2 3 3 3 2 1 0 0 0 0 0 0 0
0 0 0 0 0 0 0 0 0 0 0 0 0 0 0 0 0 0 0 0 0 0 0 0 0 0 0 0 0 0 1 2 3 3 3 3 2 1 1 0 0 0 0 0
0 0 0 0 0 0 0 0 0 0 0 0 0 0 0 0 0 0 0 0 0 0 0 0 0 0 0 0 0 0 0 1 1 3 3 3 3 3 2 1 0 0 0 0
0 0 0 0 0 0 0 0 0 0 0 0 0 0 0 0 0 0 0 0 0 0 0 0 0 0 0 0 0 0 0 0 1 2 3 3 3 3 3 2 1 0 0 0
0 0 0 0 0 0 0 0 0 0 0 0 0 0 0 0 0 0 0 0 0 0 0 0 0 0 0 0 0 0 0 0 0 1 2 3 3 3 3 3 2 1 0 0
0 0 0 0 0 0 0 0 0 0 0 0 0 0 0 0 0 0 0 0 0 0 0 0 0 0 0 0 0 0 0 0 0 0 1 1 2 2 3 3 3 1 0 0
0 0 0 0 0 0 0 0 0 0 0 0 0 0 0 0 0 0 0 0 0 0 0 0 0 0 0 0 0 0 0 0 0 0 0 0 1 1 1 3 3 2 1 0
0 0 0 0 0 0 0 0 0 0 0 0 0 0 0 0 0 0 0 0 0 0 0 0 0 0 0 0 0 0 0 0 0 0 0 0 0 0 1 2 3 2 1 0
0 0 0 0 0 0 0 0 0 0 0 0 0 0 0 0 0 0 0 0 0 0 0 0 0 0 0 0 0 0 0 0 0 0 0 0 0 0 0 1 2 2 1 0
0 0 0 0 0 0 0 0 0 0 0 0 0 0 0 0 0 0 0 0 0 0 0 0 0 0 0 0 0 0 0 0 0 0 0 0 0 0 0 0 1 1 0 0
0 0 0 0 0 0 0 0 0 0 0 0 0 0 0 0 0 0 0 0 0 0 0 0 0 0 0 0 0 0 0 0 0 0 0 0 0 0 0 0 0 0 0 0
0 0 0 0 0 0 0 0 0 0 0 0 0 0 0 0 0 0 0 0 0 0 0 0 0 0 0 0 0 0 0 0 0 0 0 0 0 0 0 0 0 0 0 0
0 0 0 0 0 0 0 0 0 0 0 0 0 0 0 0 0 0 0 0 0 0 0 0 0 0 0 0 0 0 0 0 0 0 0 0 0 0 0 0 0 0 0 0
0 0 0 0 0 0 0 0 0 0 0 0 0 0 0 0 0 0 0 0 0 0 0 0 0 0 0 0 0 0 0 0 0 0 0 0 0 0 0 0 0 0 0 0
0 0 0 0 0 0 0 0 0 0 0 0 0 0 0 0 0 0 0 0 0 0 0 0 0 0 0 0 0 0 0 0 0 0 0 0 0 0 0 0 0 0 0 0
0 0 0 0 0 0 0 0 0 0 0 0 0 0 0 0 0 0 0 0 0 0 0 0 0 0 0 0 0 0 0 0 0 0 0 0 0 0 0 0 0 0 0 0
0 0 0 0 0 0 0 0 0 0 0 0 0 0 0 0 0 0 0 0 0 0 0 0 0 0 0 0 0 0 0 0 0 0 0 0 0 0 0 0 0 0 0 0
0 0 0 0 0 0 0 0 0 0 0 0 0 0 0 0 0 0 0 0 0 0 0 0 0 0 0 0 0 0 0 0 0 0 0 0 0 0 0 0 0 0 0 0
0 0 0 0 0 0 0 0 0 0 0 0 0 0 0 0 0 0 0 0 0 0 0 0 0 0 0 0 0 0 0 0 0 0 0 0 0 0 0 0 0 0 0 0
0 0 0 0 0 0 0 0 0 0 0 0 0 0 0 0 0 0 0 0 0 0 0 0 0 0 0 0 0 0 0 0 0 0 0 0 0 0 0 0 0 0 0 0
0 0 0 0 0 0 0 0 0 0 0 0 0 0 0 0 0 0 0 0 0 0 0 0 0 0 0 0 0 0 0 0 0 0 0 0 0 0 0 0 0 0 0 0
0 0 0 0 0 0 0 0 0 0 0 0 0 0 0 0 0 0 0 0 0 0 0 0 0 0 0 0 0 0 0 0 0 0 0 0 0 0 0 0 0 0 0 0
0 0 0 0 0 0 0 0 0 0 0 0 0 0 0 0 0 0 0 0 0 0 0 0 0 0 0 0 0 0 0 0 0 0 0 0 0 0 0 0 0 0 0 0
0 0 0 0 0 0 0 0 0 0 0 0 0 0 0 0 0 0 0 0 0 0 0 0 0 0 0 0 0 0 0 0 0 0 0 0 0 0 0 0 0 0 0 0
Wind_Speed
1 2 4 5 5 2 2 4 4 3 0 2 6 10 11 9 7 8 8 8 8 8 6 4 4 5 5 5 5 5 5 5 5 4 4 3 3 2 2 1 1 1 2 2
3 4 3 2 3 3 4 4 4 2 0 3 5 10 11 9 8 8 8 8 8 7 5 4 3 4 5 5 5 5 6 6 6 5 4 3 3 2 2 1 1 1 2 2
5 1 2 4 4 4 5 6 5 3 2 2 5 7 6 4 5 5 6 7 7 7 6 5 4 5 5 5 6 5 6 6 6 6 4 3 3 2 2 2 2 2 2 2
3 1 3 4 4 5 5 3 4 3 4 2 2 6 5 4 5 5 6 6 6 5 5 5 4 5 5 5 5 5 5 5 5 6 6 6 4 4 3 2 2 2 2 2
2 2 3 4 3 4 2 1 2 3 3 4 3 6 7 2 6 6 6 5 5 5 4 4 4 4 4 4 4 5 5 5 5 5 6 6 5 3 2 2 2 2 2 2
0 0 1 1 0 2 4 3 2 1 2 5 4 6 7 4 6 5 3 4 4 3 3 3 3 3 3 3 4 4 5 5 5 5 5 6 6 5 4 3 3 2 1 1
2 2 1 1 3 3 3 3 2 2 3 5 2 6 9 5 5 5 4 3 2 2 2 2 3 3 3 3 4 4 5 4 5 5 5 5 5 5 5 4 3 3 2 1
4 4 4 3 3 4 5 4 4 4 4 2 3 8 6 3 4 5 5 4 2 2 2 2 3 3 3 3 4 5 5 5 5 5 5 5 4 3 3 4 3 3 2 2
5 3 2 1 1 3 5 4 1 1 0 4 5 6 8 4 5 5 4 4 3 2 2 2 2 3 3 3 4 5 5 5 5 5 5 4 4 4 3 3 3 2 2 1
3 2 0 0 1 0 1 3 4 4 4 5 5 5 5 4 5 4 4 4 3 2 2 2 2 2 2 3 4 4 5 5 5 5 4 3 4 4 3 3 3 3 2 2
3 3 1 2 5 6 4 4 4 3 3 4 5 4 3 5 4 5 4 4 3 2 2 2 2 2 2 3 3 4 4 4 4 4 4 4 4 4 3 3 3 3 3 2
3 2 3 4 1 2 4 5 6 5 4 4 4 6 1 3 3 4 4 3 3 3 2 2 2 3 3 3 4 4 4 5 4 4 4 4 4 4 4 4 3 3 3 3
5 4 2 2 3 3 5 5 6 3 2 4 6 7 2 1 3 4 4 3 3 3 2 2 2 3 3 4 4 4 4 5 4 4 5 4 4 4 4 4 4 3 3 3
4 4 6 7 3 5 6 7 8 7 6 7 11 12 7 6 6 6 5 5 4 4 4 3 3 3 3 3 4 4 4 4 4 5 5 5 5 5 5 4 4 4 4 4
4 5 5 6 4 3 6 9 12 13 13 11 12 14 14 11 9 8 6 5 5 5 5 5 4 4 3 3 4 4 4 4 5 5 5 5 4 4 4 3 3 3 3 3
3 4 3 5 5 5 8 12 14 15 15 17 16 18 14 12 9 9 8 7 8 7 6 5 5 5 4 4 4 4 4 4 5 5 5 4 4 4 4 4 3 3 3 3
5 5 4 5 2 3 11 14 15 13 14 13 18 17 10 9 9 10 10 10 10 8 7 6 6 6 5 5 5 5 4 4 5 5 4 4 4 4 4 3 3 3 3 3
6 5 3 2 2 11 8 3 11 14 15 15 15 13 10 10 9 8 8 9 9 8 7 6 5 5 4 4 4 3 3 4 4 4 4 4 4 4 4 4 4 3 3 3
7 7 5 4 7 12 9 5 7 9 11 12 15 15 12 7 6 8 6 7 8 7 5 5 4 4 3 3 3 3 3 3 4 4 4 4 4 4 4 4 4 3 3 3
4 5 5 6 7 11 6 3 4 5 9 6 10 12 9 5 6 5 2 3 4 3 3 3 2 2 3 2 3 4 4 4 4 4 4 4 4 5 5 5 4 3 3 3
6 6 9 10 10 11 4 3 6 7 6 2 5 6 6 7 6 3 1 2 3 2 2 2 2 2 2 2 4 4 3 4 3 2 2 3 4 4 4 4 3 3 3 2
11 10 10 8 10 12 5 7 9 5 1 1 3 4 5 6 5 3 3 2 2 2 2 2 2 2 1 2 4 4 4 2 1 2 2 3 3 3 3 3 3 3 3 3
11 10 8 11 10 3 8 8 4 1 2 2 3 3 4 4 4 4 3 2 2 2 2 2 2 2 1 2 3 4 2 1 2 2 2 2 2 2 2 3 3 3 3 3
6 3 4 7 10 6 6 6 5 4 5 4 3 3 4 5 5 4 3 2 2 2 2 2 3 2 2 2 2 2 1 2 2 2 2 2 2 2 2 2 3 3 4 4
7 7 6 8 7 5 6 8 7 6 4 4 4 3 4 4 4 4 4 3 3 2 1 2 3 3 2 2 2 1 1 2 3 2 2 2 2 2 2 3 3 4 4 4
9 10 10 10 8 7 6 5 6 6 6 5 5 4 4 4 5 4 3 3 2 2 2 2 2 2 2 2 2 1 2 3 3 2 2 2 2 2 2 2 2 4 5 5
Wind_Direction
96 172 196 200 208 235 199 207 242 261 318 260 258 272 281 277 265 264 262 260 256 254 252 237 217 211 213 209 204 199 191 188 180 176 178 180 186 183 186 195 204 196 176 183
157 217 227 200 190 194 196 222 255 269 305 265 286 282 278 271 257 257 258 255 253 252 243 228 215 207 208 206 204 201 197 189 189 188 178 180 178 180 186 180 193 207 186 179
191 141 183 175 179 197 223 233 243 256 287 239 296 280 260 260 246 256 253 249 249 244 239 229 210 208 209 209 206 197 196 192 189 186 169 155 159 153 170 196 202 216 203 176
210 204 166 174 201 212 233 223 224 237 262 272 291 286 272 265 267 261 251 242 242 237 231 225 215 209 208 213 201 197 194 192 185 181 181 177 183 188 193 195 193 190 188 181
189 181 190 201 215 205 193 118 194 224 241 266 233 257 274 252 266 261 244 239 239 233 224 221 216 216 214 204 194 189 188 187 183 181 189 190 195 193 180 178 180 176 175 185
136 173 257 238 96 172 145 123 116 159 222 253 230 234 271 238 245 262 251 239 237 232 222 220 212 207 204 189 180 177 179 182 180 178 186 195 196 190 178 182 183 179 175 174
217 207 195 190 139 145 189 179 199 213 223 243 171 234 257 261 251 255 255 254 255 231 213 208 202 199 196 184 178 175 175 180 179 178 188 198 204 199 191 193 197 186 180 187
203 218 193 202 203 183 195 214 210 229 242 256 198 240 258 276 275 265 256 259 265 245 220 211 206 201 194 186 181 175 176 181 178 181 191 197 201 203 203 199 194 194 198 202
204 215 100 194 263 196 175 206 250 150 37 269 247 262 281 259 251 244 240 238 238 233 218 216 204 192 187 181 183 181 178 179 180 184 187 191 193 197 197 190 192 195 197 187
192 201 182 218 190 250 284 162 169 198 224 249 258 246 249 238 227 215 214 221 232 219 200 206 196 189 191 185 179 176 181 183 183 185 188 187 192 196 198 192 190 192 194 186
195 181 163 181 207 197 170 183 199 192 237 240 260 252 226 236 232 221 224 223 223 215 205 202 197 191 191 181 178 177 183 184 182 187 188 188 191 190 191 198 201 201 198 193
181 177 212 219 167 300 226 214 196 206 216 230 259 268 113 235 252 236 236 236 235 229 219 205 195 191 188 186 185 189 188 188 189 186 183 188 189 185 190 202 206 202 204 203
158 168 182 204 192 203 226 218 218 224 188 204 229 258 105 226 249 240 239 247 246 242 233 211 200 202 202 196 191 193 194 194 188 183 183 188 189 191 199 205 203 202 205 205
156 184 211 230 238 180 204 209 204 201 219 229 237 256 264 272 268 269 262 257 258 248 235 221 219 218 213 203 197 194 195 192 185 184 188 195 199 200 203 203 200 202 203 205
182 216 227 255 271 232 228 219 207 214 226 234 248 252 261 267 265 267 265 259 252 248 241 232 228 225 220 211 208 203 198 188 184 187 196 206 204 201 198 199 200 200 204 210
193 209 202 249 241 246 256 243 227 228 235 243 259 264 263 266 265 260 253 245 247 244 240 236 231 228 224 217 212 207 203 191 185 192 202 206 199 196 199 199 197 198 205 210
185 178 198 244 245 260 254 231 217 222 224 225 239 252 260 256 251 250 248 244 243 240 236 233 230 227 225 222 211 209 206 189 188 197 202 199 198 198 199 195 197 204 207 208
182 181 204 235 199 240 250 205 211 226 237 229 245 259 258 258 266 262 251 245 244 240 236 232 230 232 227 218 208 202 189 187 193 201 205 201 200 201 195 193 203 209 209 212
206 189 190 204 240 263 268 220 198 215 250 229 238 253 260 264 278 267 248 239 242 240 236 231 226 223 213 201 189 178 177 181 191 204 209 206 202 200 197 201 207 207 204 212
199 203 199 203 227 243 251 188 189 197 256 227 226 244 251 224 242 259 234 222 233 230 222 219 206 191 189 180 161 167 177 182 202 213 213 208 202 202 206 210 208 204 203 213
180 197 211 217 236 255 250 156 159 202 248 195 215 231 221 219 243 290 263 223 217 212 201 182 169 175 190 162 158 172 183 207 219 204 194 198 203 208 209 208 202 196 196 205
186 190 203 204 228 246 163 158 197 225 353 220 234 234 229 240 262 266 253 241 208 188 169 159 161 170 147 147 166 181 207 222 188 172 180 193 200 202 199 195 193 190 195 206
210 205 199 205 226 254 174 197 215 206 226 240 243 252 238 241 251 254 249 239 222 197 171 155 162 162 146 160 182 196 219 163 150 162 185 190 188 196 194 196 195 195 201 214
227 231 221 245 254 244 221 232 239 227 234 247 247 244 227 236 245 252 250 240 230 212 189 165 160 177 195 187 196 221 186 138 153 177 197 189 188 199 199 205 205 208 211 219
213 182 210 243 260 271 247 232 239 242 242 248 250 236 228 229 234 235 239 241 236 220 188 175 189 205 218 198 211 221 166 153 169 183 193 197 198 200 207 216 222 224 229 228
202 195 201 228 216 214 237 224 213 217 227 231 235 238 230 221 228 227 232 234 226 218 185 183 203 219 227 203 217 216 184 175 176 187 202 206 206 203 206 215 241 244 249 252